Location: Austin
(30.3000°N, 97.7500°W)
Time: 01:11:13
(UTC-06:00)

SMAP - Pass Details

Date: 04 November 2025
Orbit: 681 x 683 km, 98.1° (Epoch: 15 November)

Event Time Altitude Azimuth Distance (km) Brightness Sun altitude
Rises 18:16:31 0° 174° (S) 3,028 6.5 -8.2°
Reaches altitude 10° 18:18:46 10° 177° (S) 2,116 5.7 -8.7°
Maximum altitude 18:23:21 65° 258° (WSW) 752 3.6 -9.7°
Drops below altitude 10° 18:27:58 10° 341° (NNW) 2,127 5.7 -10.7°
Sets 18:30:14 0° 344° (NNW) 3,045 6.5 -11.1°
